Location: *
(50.0228°S, 177.2688°W)
Time: 23:37:50
(UTC+00:00)

Cosmos 1626 Rocket - Pass Details

Date: 07 April 2020
Orbit: 602 x 632 km, 82.5° (Epoch: 23 May)

Event Time Altitude Azimuth Distance (km) Brightness Sun altitude
Exits shadow 07:14:32 41° 92° (E) 902 3.9 -18.7°
Drops below altitude 10° 07:18:35 10° 157° (SSE) 2,004 6.1 -19.3°
Sets 07:20:55 0° 164° (SSE) 2,922 7.0 -19.7°
